Hemavan current weather conditions

sailwx.info

Wind at 1 knots

Air temperature -0.0° C
Visibility: greater than 0.9 NM
Dewpoint -0.0° C
Present weather: Light snow.

Last reported at 2017-Mar-27 05:20 UTC.
Time now 2017-Mar-27 06:37 UTC

Location: N 65°48' E 015°05'.
View on Google Maps.

See reports from other nearby stations

  
Tides and Currents Weather Stations Pressure Air Temp Water Temp Dewpoint Dewpoint Depression Visibility Wind Speed Wind Dir Waves Ship Positions
date/time (UTC)wind fromknots sea level pressurealtimeterstation pressurevisibilityair tempwater tempwave heightnotes
2017-Mar-27 05:20 0.9-0.0 Light snow.
2017-Mar-27 04:50 090 4 0.7-0.0 Light snow.
2017-Mar-27 04:20 0.9-1.0 Light snow.
2017-Mar-27 03:50 080 0 1.2-1.0 Light snow.
2017-Mar-27 03:20 080 0 0.3-1.0 Snow.
2017-Mar-27 02:50 0.7-1.0 Light snow.
2017-Mar-27 02:20 040 6 1.0-1.0 Light snow.
2017-Mar-27 01:50 020 6 0.9-0.0 Light snow.
2017-Mar-27 01:20 0.9-0.0 Light snow.
2017-Mar-27 00:50 0.7-0.0 Light snow.
2017-Mar-27 00:20 010 6 3.2-0.0 Light rain snow.
2017-Mar-26 23:50 3.2-0.0 Light snow.
2017-Mar-26 23:20 360 6 1.8-0.0 Light snow.
2017-Mar-26 22:50 360 8 5.4-0.0 Light rain.
2017-Mar-26 22:20 360 4 5.4-0.0
2017-Mar-26 21:50 320 7 5.4-0.0 Light drizzle.
2017-Mar-26 21:20 300 12 5.4-0.0 Light freezing rain.
2017-Mar-26 20:50 320 6 gusting 18 3.2-0.0 Light rain.
2017-Mar-26 20:20 010 4 5.4-0.0
2017-Mar-26 19:50 360 6 5.4-0.0 Light freezing drizzle.
2017-Mar-26 19:20 360 9 5.4-0.0 Precipitation.
2017-Mar-26 18:50 350 6 3.2-0.0 Light rain snow.
2017-Mar-26 18:20 330 13 2.2-0.0 Light snow.
2017-Mar-26 17:50 330 11 2.7-0.0 Light snow.
2017-Mar-26 17:20 310 14 3.2-0.0 Light snow.
2017-Mar-26 16:50 310 17 5.4 1.0
2017-Mar-26 16:20 320 12 5.4-0.0
2017-Mar-26 15:50 320 13 1.2-0.0 Light snow.
2017-Mar-26 15:20 310 15 2.7-0.0 Light rain.
2017-Mar-26 14:50 310 19 0.9-0.0 Light snow.
2017-Mar-26 14:20 310 24 1.0-0.0 Light snow.
2017-Mar-26 13:50 310 21 gusting 34 0.4-0.0 Light snow.
2017-Mar-26 13:20 310 21 gusting 34 2.1 1.0 Precipitation.
2017-Mar-26 12:50 310 22 gusting 34 0.5 1.0 Light rain.
2017-Mar-26 12:20 320 20 gusting 32 0.4-0.0 Snow.
2017-Mar-26 11:50 310 20 gusting 34 0.6-0.0 Light snow.
2017-Mar-26 11:20 310 18 gusting 28 3.2 1.0 Light rain.
2017-Mar-26 10:50 310 17 0.6-0.0 Light snow.
2017-Mar-26 10:20 310 19 0.7-0.0 Light snow.
2017-Mar-26 09:50 300 22 gusting 34 5.4 2.0
2017-Mar-26 09:20 310 17 5.4-0.0 Light snow.
2017-Mar-26 08:50 310 20 gusting 31 5.4 2.0
2017-Mar-26 08:20 290 21 gusting 34 1.0 2.0 Rain.
2017-Mar-26 07:50 290 17 gusting 27 2.7 2.0 Light rain.
2017-Mar-26 07:20 300 13 5.4 2.0 Drizzle.
2017-Mar-26 06:50 290 18 3.8 2.0 Drizzle.
2017-Mar-26 06:20 290 14 2.7 2.0 Light rain.
2017-Mar-26 05:50 280 18 2.7 2.0 Drizzle.
2017-Mar-26 05:20 290 13 3.2 2.0 Light rain.
2017-Mar-26 04:50 290 13 2.7 2.0 Light rain.
2017-Mar-26 04:20 280 14 3.2 3.0 Light rain.
2017-Mar-26 03:50 290 14 3.8 3.0 Light drizzle.
2017-Mar-26 03:20 290 13 5.4 3.0 Light drizzle.
2017-Mar-26 02:50 310 13 2.7 3.0 Light rain.
2017-Mar-26 02:20 300 14 5.4 3.0 Light rain.
2017-Mar-26 01:50 290 14 2.7 3.0 Drizzle.
2017-Mar-26 01:20 300 13 3.2 3.0 Mist.
2017-Mar-26 00:50 290 18 2.7 4.0 Light drizzle.
2017-Mar-26 00:20 300 19 gusting 32 5.4 4.0
2017-Mar-25 23:50 320 7 5.4 3.0
2017-Mar-25 23:20 360 5 3.8 2.0 Mist.
2017-Mar-25 22:50 310 5 2.7 1.0 Light drizzle.
2017-Mar-25 22:20 020 7 3.2 2.0 Light rain.
2017-Mar-25 21:50 010 6 1.9 1.0 Light rain snow.
2017-Mar-25 21:20 1.0-0.0 Light snow.
2017-Mar-25 20:50 040 5 1.6 1.0 Light rain snow.
2017-Mar-25 20:20 0.6-0.0 Light snow.
2017-Mar-25 19:50 0.5-0.0 Light snow.
2017-Mar-25 19:20 1.0-0.0 Light snow.
2017-Mar-25 18:50 130 2 1.3-0.0 Light ice pellets.
2017-Mar-25 18:20 190 2 1.0-0.0 Light rain snow.
2017-Mar-25 17:50 090 2 3.8-0.0 Light rain.
2017-Mar-25 17:20 280 6 5.4 1.0 Precipitation.
2017-Mar-25 16:50 320 8 5.4 2.0
2017-Mar-25 16:20 260 8 5.4 2.0
2017-Mar-25 15:50 260 5 5.4 2.0
2017-Mar-25 15:20 5.4 3.0
2017-Mar-25 14:50 310 2 5.4 3.0
2017-Mar-25 14:20 290 8 5.4 3.0
2017-Mar-25 13:50 310 6 5.4 2.0 Light rain.
2017-Mar-25 13:20 300 5 5.4 2.0
2017-Mar-25 12:50 290 8 5.4 1.0 Snow grains.
2017-Mar-25 12:20 290 8 5.4 2.0
2017-Mar-25 11:50 290 11 5.4 3.0
2017-Mar-25 11:20 310 17 3.8 2.0 Mist.
2017-Mar-25 10:50 300 14 5.4 2.0
2017-Mar-25 10:20 300 12 5.4 2.0
2017-Mar-25 09:50 310 11 4.3-0.0 Light snow.
2017-Mar-25 09:20 290 14 3.2 1.0 Light snow.
2017-Mar-25 08:50 300 11 3.2 1.0 Mist.
2017-Mar-25 08:20 310 9 5.4 1.0
2017-Mar-25 07:50 320 6 5.4-0.0
2017-Mar-25 07:20 300 7 5.4-0.0
2017-Mar-25 06:50 300 7 5.4-0.0 Light snow.
2017-Mar-25 06:20 310 5 5.4-2.0 Light snow.